When you browse on this site, cookies collect data to enhance your experience and personalize the content and advertising you see.
Visit our Privacy Policy to learn more. By continuing to use the site, you agree to this use of cookies and data.

Meteo pe oră la Sidorovskoe

Astăzi, 5 Iulie, Duminică

Timp Temperatura Precipitaţii Vânt Presiune Umiditate
00:00 +16°C° 0 mm 1 m/s 751 mmHg 77%
01:00 +16°C° 0 mm 1 m/s 751 mmHg 76%
02:00 +17°C° 0 mm 2 m/s 751 mmHg 75%
03:00 +17°C° 0 mm 2 m/s 751 mmHg 77%
04:00 +16°C° 0 mm 2 m/s 751 mmHg 78%
05:00 +16°C° 0 mm 3 m/s 751 mmHg 80%
06:00 +18°C° 0 mm 3 m/s 750 mmHg 74%
07:00 +20°C° 0 mm 4 m/s 750 mmHg 67%
08:00 +22°C° 0 mm 4 m/s 750 mmHg 61%
09:00 +23°C° 0 mm 4 m/s 750 mmHg 58%
10:00 +25°C° 0 mm 4 m/s 750 mmHg 55%
11:00 +26°C° 0 mm 5 m/s 750 mmHg 52%
12:00 +25°C° 0.1 mm 4 m/s 749 mmHg 58%
13:00 +23°C° 0.1 mm 4 m/s 749 mmHg 64%
14:00 +22°C° 0.1 mm 4 m/s 749 mmHg 71%
15:00 +22°C° 0.1 mm 4 m/s 749 mmHg 75%
16:00 +21°C° 0.1 mm 3 m/s 749 mmHg 78%
17:00 +21°C° 0.1 mm 3 m/s 748 mmHg 82%
18:00 +20°C° 0 mm 3 m/s 748 mmHg 84%
19:00 +20°C° 0 mm 2 m/s 748 mmHg 86%
20:00 +19°C° 0 mm 2 m/s 748 mmHg 88%
21:00 +19°C° 0 mm 2 m/s 748 mmHg 89%
22:00 +19°C° 0 mm 3 m/s 748 mmHg 90%
23:00 +18°C° 0 mm 3 m/s 748 mmHg 91%

Mâine, 6 Iulie, Luni

Timp Temperatura Precipitaţii Vânt Presiune Umiditate
00:00 +18°C° 0 mm 3 m/s 747 mmHg 92%
01:00 +18°C° 0 mm 3 m/s 747 mmHg 92%
02:00 +18°C° 0 mm 4 m/s 747 mmHg 93%
03:00 +19°C° 0 mm 4 m/s 747 mmHg 92%
04:00 +19°C° 0 mm 4 m/s 747 mmHg 91%
05:00 +19°C° 0 mm 4 m/s 747 mmHg 90%
06:00 +20°C° 0 mm 4 m/s 747 mmHg 87%
07:00 +21°C° 0 mm 4 m/s 747 mmHg 84%
08:00 +21°C° 0 mm 4 m/s 747 mmHg 81%
09:00 +22°C° 0.2 mm 4 m/s 747 mmHg 79%
10:00 +23°C° 0.2 mm 5 m/s 747 mmHg 76%
11:00 +25°C° 0.2 mm 5 m/s 747 mmHg 74%
12:00 +25°C° 0.5 mm 4 m/s 747 mmHg 76%
13:00 +25°C° 0.5 mm 4 m/s 747 mmHg 78%
14:00 +23°C° 0.5 mm 4 m/s 747 mmHg 80%
15:00 +24°C° 0.2 mm 3 m/s 747 mmHg 81%
16:00 +24°C° 0.2 mm 3 m/s 747 mmHg 81%
17:00 +24°C° 0.2 mm 3 m/s 747 mmHg 81%
18:00 +23°C° 0 mm 2 m/s 747 mmHg 82%
19:00 +22°C° 0 mm 1 m/s 747 mmHg 83%
20:00 +22°C° 0 mm 1 m/s 747 mmHg 84%
21:00 +21°C° 0 mm 1 m/s 747 mmHg 85%
22:00 +21°C° 0 mm 1 m/s 747 mmHg 86%
23:00 +20°C° 0 mm 1 m/s 748 mmHg 86%

Poimâine, 7 Iulie, Marţi

Timp Temperatura Precipitaţii Vânt Presiune Umiditate
00:00 +20°C° 0 mm 1 m/s 748 mmHg 86%
01:00 +17°C° 0 mm 0 m/s 748 mmHg 85%
02:00 +17°C° 0 mm 0 m/s 748 mmHg 85%
03:00 +17°C° 0 mm 0 m/s 748 mmHg 84%
04:00 +17°C° 0 mm 0 m/s 748 mmHg 84%
05:00 +19°C° 0 mm 1 m/s 748 mmHg 83%
06:00 +18°C° 0.9 mm 1 m/s 748 mmHg 86%
07:00 +18°C° 0.9 mm 1 m/s 748 mmHg 89%
08:00 +18°C° 0.9 mm 1 m/s 748 mmHg 92%
09:00 +18°C° 0.8 mm 1 m/s 748 mmHg 93%
10:00 +16°C° 0.8 mm 1 m/s 749 mmHg 94%
11:00 +16°C° 0.8 mm 1 m/s 749 mmHg 95%
12:00 +16°C° 0.5 mm 1 m/s 749 mmHg 93%
13:00 +18°C° 0.5 mm 1 m/s 749 mmHg 92%
14:00 +18°C° 0.5 mm 1 m/s 749 mmHg 90%
15:00 +19°C° 0 mm 1 m/s 749 mmHg 83%
16:00 +18°C° 0 mm 2 m/s 750 mmHg 76%
17:00 +19°C° 0 mm 2 m/s 750 mmHg 69%
18:00 +18°C° 0 mm 2 m/s 750 mmHg 74%
19:00 +17°C° 0 mm 2 m/s 750 mmHg 78%
20:00 +16°C° 0 mm 2 m/s 750 mmHg 83%
21:00 +16°C° 0 mm 2 m/s 750 mmHg 84%
22:00 +15°C° 0 mm 1 m/s 750 mmHg 86%
23:00 +14°C° 0 mm 1 m/s 751 mmHg 87%

8 Iulie, Miercuri

Timp Temperatura Precipitaţii Vânt Presiune Umiditate
00:00 +14°C° 0 mm 1 m/s 751 mmHg 87%
01:00 +14°C° 0 mm 1 m/s 751 mmHg 87%
02:00 +14°C° 0 mm 1 m/s 751 mmHg 87%
03:00 +14°C° 0 mm 1 m/s 752 mmHg 86%
04:00 +14°C° 0 mm 1 m/s 752 mmHg 86%
05:00 +14°C° 0 mm 1 m/s 752 mmHg 86%
06:00 +16°C° 0 mm 1 m/s 752 mmHg 79%
07:00 +19°C° 0 mm 1 m/s 752 mmHg 73%
08:00 +20°C° 0 mm 1 m/s 752 mmHg 67%
09:00 +22°C° 0 mm 1 m/s 752 mmHg 60%
10:00 +23°C° 0 mm 1 m/s 752 mmHg 53%
11:00 +24°C° 0 mm 1 m/s 752 mmHg 46%
12:00 +25°C° 0 mm 1 m/s 751 mmHg 43%
13:00 +25°C° 0 mm 1 m/s 751 mmHg 41%
14:00 +26°C° 0 mm 1 m/s 751 mmHg 38%
15:00 +25°C° 0 mm 1 m/s 751 mmHg 39%
16:00 +25°C° 0 mm 1 m/s 750 mmHg 41%
17:00 +25°C° 0 mm 1 m/s 750 mmHg 42%
18:00 +23°C° 0 mm 1 m/s 750 mmHg 51%
19:00 +21°C° 0 mm 1 m/s 750 mmHg 59%
20:00 +17°C° 0 mm 0 m/s 750 mmHg 68%
21:00 +16°C° 0 mm 0 m/s 750 mmHg 70%
22:00 +14°C° 0 mm 0 m/s 749 mmHg 72%
23:00 +13°C° 0 mm 0 m/s 749 mmHg 73%

9 Iulie, Joi

Timp Temperatura Precipitaţii Vânt Presiune Umiditate
00:00 +14°C° 0 mm 1 m/s 749 mmHg 75%
01:00 +14°C° 0 mm 1 m/s 749 mmHg 76%
02:00 +14°C° 0 mm 1 m/s 749 mmHg 77%
03:00 +14°C° 0 mm 1 m/s 749 mmHg 79%
04:00 +14°C° 0 mm 1 m/s 749 mmHg 81%
05:00 +14°C° 0 mm 1 m/s 749 mmHg 83%
06:00 +15°C° 0 mm 2 m/s 748 mmHg 78%
07:00 +17°C° 0 mm 2 m/s 748 mmHg 73%
08:00 +18°C° 0 mm 2 m/s 748 mmHg 68%
09:00 +20°C° 0.1 mm 2 m/s 748 mmHg 63%
10:00 +21°C° 0.1 mm 2 m/s 748 mmHg 58%
11:00 +23°C° 0.1 mm 2 m/s 748 mmHg 52%
12:00 +22°C° 0.2 mm 3 m/s 747 mmHg 52%
13:00 +22°C° 0.2 mm 3 m/s 747 mmHg 51%
14:00 +23°C° 0.2 mm 4 m/s 747 mmHg 51%
15:00 +21°C° 0.5 mm 3 m/s 747 mmHg 60%
16:00 +20°C° 0.5 mm 3 m/s 747 mmHg 69%
17:00 +19°C° 0.5 mm 3 m/s 747 mmHg 78%
18:00 +18°C° 0.1 mm 3 m/s 747 mmHg 80%
19:00 +17°C° 0.1 mm 3 m/s 747 mmHg 82%
20:00 +16°C° 0.1 mm 3 m/s 747 mmHg 84%
21:00 +14°C° 0 mm 3 m/s 747 mmHg 86%
22:00 +13°C° 0 mm 3 m/s 747 mmHg 88%
23:00 +12°C° 0 mm 3 m/s 747 mmHg 90%

10 Iulie, Vineri

Timp Temperatura Precipitaţii Vânt Presiune Umiditate
00:00 +12°C° 0 mm 3 m/s 748 mmHg 90%
01:00 +12°C° 0 mm 3 m/s 748 mmHg 90%
02:00 +12°C° 0 mm 3 m/s 748 mmHg 90%
03:00 +12°C° 0 mm 4 m/s 748 mmHg 89%
04:00 +13°C° 0 mm 4 m/s 749 mmHg 88%
05:00 +13°C° 0 mm 5 m/s 749 mmHg 87%
06:00 +13°C° 0 mm 4 m/s 749 mmHg 85%
07:00 +14°C° 0 mm 4 m/s 750 mmHg 83%
08:00 +14°C° 0 mm 4 m/s 750 mmHg 81%
09:00 +15°C° 0 mm 4 m/s 750 mmHg 74%
10:00 +18°C° 0 mm 4 m/s 751 mmHg 68%
11:00 +19°C° 0 mm 3 m/s 751 mmHg 62%
12:00 +20°C° 0 mm 4 m/s 751 mmHg 57%
13:00 +21°C° 0 mm 4 m/s 751 mmHg 52%
14:00 +23°C° 0 mm 4 m/s 751 mmHg 47%
15:00 +22°C° 0 mm 4 m/s 751 mmHg 47%
16:00 +22°C° 0 mm 4 m/s 751 mmHg 47%
17:00 +22°C° 0 mm 3 m/s 751 mmHg 47%
18:00 +20°C° 0 mm 3 m/s 752 mmHg 53%
19:00 +18°C° 0 mm 2 m/s 752 mmHg 60%
20:00 +16°C° 0 mm 1 m/s 752 mmHg 66%
21:00 +15°C° 0 mm 1 m/s 752 mmHg 67%
22:00 +14°C° 0 mm 1 m/s 753 mmHg 68%
23:00 +13°C° 0 mm 1 m/s 753 mmHg 69%
Arată mai mult